{"data":{"norad_id":54648,"epoch":"2026-05-25T05:29:33.141120Z","epoch_age_seconds":58478,"freshness":"FRESH","line1":"1 54648U 22166G   26145.22885580  .00000121  00000+0  26097-3 0  9990","line2":"2 54648  87.9253 248.5496 0002407  99.3956 260.7450 13.21826187168519","mean_motion":13.21826187,"eccentricity":0.0002407,"inclination_deg":87.9253,"raan_deg":248.5496,"arg_perigee_deg":99.3956,"mean_anomaly_deg":260.745,"bstar":0.00026097,"rev_number":16851,"period_min":108.94019305732,"perigee_km":1175.9339531017,"apogee_km":1179.571358382,"semimajor_km":7555.8896557419,"source":"CELESTRAK","updated_at":"2026-05-25T13:38:22.627294Z"}}